Location: Lignol
(48.0368°N, 3.2704°W)
Time: 12:27:43
(UTC+00:00)

Daily predictions for brighter satellites

Satellite Brightness Start Highest point End
(mag) Time Altitude Azimuth Time Altitude Azimuth Time Altitude Azimuth
RESURS DK-1 2.4 20:50:14 10° NNW 20:54:24 86° ENE 20:58:32 10° SSE
Cosmos 1025 Rocket 4.1 20:53:48 10° SSW 20:57:56 48° WNW 21:02:08 10° N
Cosmos 2084 Rocket 3.8 20:58:56 10° NW 21:02:45 51° NE 21:06:42 10° ESE
X-37B 1.1 21:01:02 10° W 21:03:38 34° SSW 21:06:14 10° SE
SL-8 R/B 4.1 21:00:52 10° W 21:05:32 53° SSW 21:10:13 10° SE
Helios 1A Rocket 3.6 21:03:15 10° SE 21:07:04 40° ENE 21:10:56 10° N
Cosmos 1271 Rocket 3.9 21:05:14 10° NNW 21:09:01 43° W 21:12:44 10° SSW
Cosmos 1741 Rocket 4.1 21:04:01 10° NNW 21:09:23 85° WSW 21:14:42 10° SSE
Cosmos 2154 Rocket 4.2 21:04:54 10° N 21:11:02 57° ENE 21:17:06 10° SSE
IRAS Rocket 4.3 21:05:29 10° NNE 21:11:05 70° ESE 21:16:36 10° S
Cosmos 1455 3.4 21:10:03 10° NNW 21:13:40 41° W 21:17:16 10° SSW
Ariane Rocket 3.5 21:10:53 10° S 21:15:56 62° WSW 21:21:00 10° NNW
Cosmos 2082 Rocket 3.1 21:13:12 10° SSE 21:18:06 30° ESE 21:23:01 10° NE
Cosmos 2360 4.3 21:12:34 10° NNW 21:18:21 83° ENE 21:23:52 11° SSE
SPOT 3 Rocket 3.6 21:15:56 10° SSE 21:21:07 85° WSW 21:26:24 10° NNW
CZ-2C R/B 4.4 21:17:14 10° NNE 21:21:24 34° E 21:25:23 10° SSE
Cosmos 2228 3.0 21:18:51 10° N 21:23:07 77° E 21:27:18 10° SSE
Cosmos 2058 Rocket 4.2 21:27:10 10° N 21:31:05 30° ENE 21:34:19 14° SE
Resurs 01 Rocket 3.4 21:27:23 10° SSW 21:31:15 29° W 21:35:09 10° NW
USA 234 4.4 21:25:15 10° ENE 21:31:22 43° N 21:37:29 10° WNW
ATLAS 2AS CENTAUR R/B 4.3 21:27:07 10° WNW 21:32:43 27° WSW 21:38:04 10° SSW
Meteor 1-21 Rocket 4.2 21:31:42 10° S 21:37:17 76° E 21:43:00 10° NNE
CZ-4B R/B 3.3 21:37:19 10° N 21:39:46 25° WNW 21:42:14 10° SW
Cosmos 1331 Rocket 4.1 21:35:29 10° SSW 21:40:47 89° WNW 21:46:08 10° NNE
SPOT 5 2.6 21:37:57 12° SSE 21:41:57 82° WSW 21:46:18 10° NNW
Cosmos 2184 Rocket 4.3 21:35:56 10° NNW 21:42:03 67° W 21:48:13 10° S
Terra 1.9 21:39:42 14° SSE 21:43:44 72° ENE 21:48:30 10° N
SJ 16-02 3.7 21:43:29 10° NNE 21:45:32 13° NE 21:47:35 10° ENE
Cosmos 1892 3.8 21:44:17 17° SE 21:46:16 27° E 21:49:30 10° NNE
Spot 2 Rocket 3.6 21:41:30 12° S 21:46:19 77° WSW 21:51:28 10° NNW
H-2A R/B 4.4 21:42:54 10° N 21:46:39 27° WNW 21:50:24 10° WSW
FALCON 9 DEB 3.6 21:43:53 10° WNW 21:47:06 53° NNE 21:50:08 11° E
USA 245 4.4 21:50:06 10° SSW 21:53:46 34° W 21:56:49 10° NNW
ASTEX 1 4.2 21:50:59 10° NNE 21:55:38 37° E 21:58:44 18° SE
Cosmos 1606 Rocket 3.7 21:52:17 10° NNW 21:56:37 74° W 22:00:09 15° S
USA 276 2.4 21:53:59 10° WNW 21:56:59 62° N 21:59:52 11° E
Cosmos 1697 Rocket 3.4 21:55:32 10° NW 22:00:54 48° WSW 22:05:32 14° S
Cosmos 1980 Rocket 2.2 21:55:32 10° NNW 22:01:17 88° WSW 22:05:29 19° SSE
ARIANE 5 R/B 2.6 21:58:45 19° SSE 22:01:57 80° ENE 22:06:23 10° NNW
SL-16 R/B 3.4 21:57:19 10° NNW 22:02:25 33° NE 22:07:09 11° ESE
GP-B 3.8 21:58:16 10° NNE 22:02:29 40° E 22:05:01 21° SE
ERS-1 Rocket 3.4 22:02:19 13° S 22:06:40 58° W 22:11:39 10° NNW
Cosmos 2369 3.8 22:01:34 10° NNW 22:07:18 73° WSW 22:11:30 19° SSE
ATLAS 5 CENTAUR R/B 1.9 22:08:26 23° SSE 22:09:58 32° ESE 22:13:37 10° NE
Cosmos 2341 Rocket 4.0 22:04:37 10° N 22:10:58 75° E 22:15:35 19° SSE
Cosmos 1302 Rocket 3.9 22:06:52 10° SSW 22:12:04 85° ESE 22:17:18 10° NNE
COSMOS 2406 3.4 22:09:22 10° SSW 22:15:09 78° WNW 22:20:56 10° NNE
In-Cosmos 22 Rocket 4.4 22:14:44 20° SSE 22:18:24 52° E 22:23:39 10° NNE
Cosmos 1726 Rocket 4.0 22:14:39 10° NNW 22:18:54 56° W 22:22:00 18° SSW
Cosmos 1408 2.3 22:19:29 24° S 22:21:25 85° E 22:24:53 10° N
Okean 1-7 Rocket 4.1 22:19:49 24° SSE 22:22:03 44° E 22:26:20 10° NNE
Cosmos 968 Rocket 3.8 22:17:55 10° NNW 22:23:04 62° WSW 22:26:32 21° S
Cosmos 1869 3.7 22:21:14 10° N 22:25:01 47° ENE 22:26:47 27° SE
Cosmos 1833 Rocket 4.0 22:20:36 10° SW 22:25:54 42° NW 22:31:15 10° NNE
Cosmos 1825 2.5 22:28:50 30° SSE 22:30:15 47° E 22:33:53 10° NNE
Meteor 1-27 4.2 22:26:03 10° N 22:31:37 72° ENE 22:35:01 24° SSE
Cosmos 1812 Rocket 4.4 22:32:53 10° N 22:37:06 39° ENE 22:39:08 25° SE
Cosmos 2322 Rocket 3.1 22:31:57 10° NNW 22:37:20 41° NE 22:41:25 17° ESE
X-37B 3.0 22:37:25 10° SW 22:37:25 10° SW 22:37:25 10° SW
USA 267 3.5 22:32:37 10° ENE 22:38:50 44° SE 22:45:02 10° SSW
Cosmos 2181 Rocket 4.0 22:34:39 20° S 22:39:00 76° E 22:45:16 10° NNE
BREEZE-M DEB (TANK) 3.4 22:38:22 10° W 22:41:08 77° N 22:50:18 10° E
Cosmos-2242 4.0 22:37:28 10° N 22:41:22 34° ENE 22:43:11 23° ESE
Cosmos 1932 4.4 22:35:30 10° SSW 22:41:43 82° SE 22:48:05 10° NE
Cosmos 1867 4.1 22:38:04 10° NW 22:43:19 47° WSW 22:46:12 24° S
Cosmos 2278 3.9 22:43:55 10° NNW 22:49:36 65° WSW 22:52:47 26° S
Cosmos 1602 Rocket 3.9 22:48:54 32° SSE 22:50:30 48° E 22:54:40 10° NNE
SAR-Lupe-4 3.6 22:50:07 10° N 22:53:42 76° WNW 22:55:19 31° SSW
Cosmos 2333 Rocket 3.9 22:50:17 10° NNW 22:55:08 27° NE 22:59:59 10° ESE
Cosmos 2082 Rocket 3.1 22:56:25 10° SW 23:01:56 50° NW 23:07:30 10° NNE
ALOS 2 3.4 23:00:42 26° ESE 23:02:40 41° ENE 23:06:49 10° N
Gbstr 26 Del rocket 4.0 23:05:11 28° ESE 23:05:11 28° ESE 23:08:48 10° ENE
Nadezhda 3 Rocket 4.4 23:02:13 27° SSE 23:05:18 49° E 23:11:12 10° NNE
Cosmos 1606 3.3 23:06:27 10° N 23:10:11 46° ENE 23:11:18 35° ESE
Cosmos 2360 Rocket 2.9 23:07:04 10° NNW 23:12:36 49° NE 23:16:15 20° ESE
Cosmos 1626 Rocket 3.7 23:10:58 28° SSW 23:13:08 66° W 23:17:29 10° N
Cosmos 1633 2.3 23:12:29 53° S 23:13:13 79° E 23:16:42 10° NNE
BREEZE-M DEB (TANK) 3.8 23:01:07 10° WSW 23:13:51 78° SSE 23:17:31 10° ENE
USA 234 3.5 23:07:22 10° ESE 23:13:54 73° NNE 23:20:27 10° NW
Terra 4.1 23:19:16 10° SW 23:22:01 15° W 23:24:47 10° NW
FALCON 9 DEB 4.2 23:20:17 10° WNW 23:22:39 30° WSW 23:22:39 30° WSW
SJ 16-02 1.3 23:20:23 10° NNW 23:24:51 84° ENE 23:26:24 40° SSE
H-2A R/B 3.7 23:21:37 10° NNE 23:25:45 55° E 23:26:52 41° SSE
Cosmos 1825 Rocket 3.9 23:24:44 37° SE 23:25:56 49° E 23:30:09 10° NNE
Cosmos 2058 3.3 23:28:04 39° SE 23:29:06 49° E 23:33:09 10° NNE
Cosmos 2237 4.2 23:26:09 10° NNW 23:31:55 87° WSW 23:34:40 33° SSE
USA 276 3.2 23:29:47 10° W 23:31:40 30° WSW 23:31:40 30° WSW
Meteor 2-20 4.4 23:30:58 28° S 23:34:21 86° W 23:40:29 10° N
Cosmos 2221 3.7 23:34:34 10° N 23:38:35 34° ENE 23:40:15 25° ESE
Meteor 2-2 Rocket 4.4 23:35:21 10° N 23:41:24 73° ENE 23:44:23 31° SSE
COSMOS 2428 4.3 23:36:49 10° NNW 23:41:49 30° NE 23:46:48 10° ESE
Cosmos 1980 Rocket 4.3 23:41:21 10° WNW 23:44:25 15° W 23:47:15 11° SW
ISS -1.2 23:47:44 11° E 23:47:44 11° E 23:48:00 10° E
SL-16 R/B 2.6 23:41:17 10° NW 23:46:46 50° WSW 23:49:00 32° SSW
ADEOS Rocket 3.5 23:42:56 29° S 23:47:12 83° WSW 23:55:02 10° NNW
ERS-2 2.7 23:43:49 10° NNE 23:47:14 40° E 23:47:29 39° ESE
COSMOS 2487 4.4 23:49:36 15° E 23:49:36 15° E 23:50:58 10° ENE
Cosmos 2219 Rocket 3.2 23:43:35 10° NNW 23:48:59 43° NE 23:53:12 16° ESE
SL-4 R/B 1.6 23:49:35 61° SE 23:49:35 61° SE 23:53:02 10° ENE
Cosmos 1354 Rocket 4.5 23:47:29 10° NNW 23:52:35 48° WSW 23:54:30 33° SSW
Cosmos 1934 Rocket 4.0 23:47:02 10° N 23:53:10 78° E 23:56:10 32° SSE
SL-27 R/B 4.0 23:53:43 21° E 23:53:43 21° E 23:55:54 10° NE
ATLAS 5 CENTAUR R/B 3.0 23:50:55 10° WSW 23:54:25 33° NW 23:58:23 10° NNE
